Location: Brivio
(45.7333°N, 9.4500°E)
Time: 13:48:37
(UTC+00:00)

Cosmos 1726 - Pass Details

Date: 18 October 2019
Orbit: 483 x 500 km, 82.5° (Epoch: 20 November)

Event Time Altitude Azimuth Distance (km) Brightness Sun altitude
Rises 18:02:33 0° 203° (SSW) 2,548 6.0 -16.5°
Reaches altitude 10° 18:04:43 10° 210° (SSW) 1,670 5.1 -16.9°
Maximum altitude 18:08:12 42° 283° (WNW) 708 3.4 -17.5°
Drops below altitude 10° 18:11:42 10° 355° (N) 1,678 4.9 -18.1°
Sets 18:13:54 0° 3° (N) 2,563 5.8 -18.5°
